Big Rapids, MI

4:36 PM EST on February 11, 2016 (GMT -0500)
Roben-Hood

Weather History for KRQB - September, 2012

Change the Weather History Date:

Friday, September 28, 2012

  Actual Average Record
Temperature  
Mean Temperature 54 °F -  
Max Temperature 68 °F 65 °F 82 °F (1971)
Min Temperature 41 °F 40 °F 24 °F (1991)
Degree Days  
Heating Degree Days 10    
Growing Degree Days 4 (Base 50)    
Moisture  
Dew Point 39 °F    
Average Humidity 63    
Maximum Humidity 94    
Minimum Humidity 27    
Precipitation  
Precipitation 0.00 in - - ()
Sea Level Pressure  
Sea Level Pressure 30.15 in    
Wind  
Wind Speed 3 mph (NNW)    
Max Wind Speed 10 mph    
Max Gust Speed 18 mph    
Visibility 10 miles    
Events      
Averages and records for this station are not official NWS values.
T = Trace of Precipitation, MM = Missing Value Source: NWS Daily Summary

Daily Weather History Graph

Daily Weather History Graph

Search for Another Location

Airport or City:

Trip Planner

Search our weather history database for the weather conditions in past years. The results will help you decide how hot, cold, wet, or windy it might be!

Date:

Astronomy

Sep. 28, 2012 Rise Set
Actual Time 7:36 AM EDT 7:27 PM EDT
Civil Twilight 7:08 AM EDT 7:56 PM EDT
Nautical Twilight 6:34 AM EDT 8:29 PM EDT
Astronomical Twilight 6:00 AM EDT 9:03 PM EDT
Moon 6:29 PM EDT (9/28) 6:05 AM EDT (9/28)
Length of Visible Light 12h 48m
Length of Day
11h 50m
Waxing Gibbous, 98% of the Moon is Illuminated
Sep 28
Waxing Gibbous
Sep 29
Full
Oct 8
Last Quarter
Oct 15
New
Oct 21
First Quarter

Hourly Weather History & Observations

Time (EDT) Temp. Dew Point Humidity Pressure Visibility Wind Dir Wind Speed Gust Speed Precip Events Conditions
12:15 AM 46.9 °F 41.2 °F 80% 30.18 in 10.0 mi NW 3.5 mph - N/A   Clear
12:34 AM 46.6 °F 40.5 °F 79% 30.18 in 10.0 mi Calm Calm - N/A   Clear
1:15 AM 47.7 °F 41.9 °F 80% 30.18 in 10.0 mi Calm Calm - N/A   Overcast
1:34 AM 48.9 °F 42.8 °F 79% 30.18 in 10.0 mi Calm Calm - N/A   Overcast
1:55 AM 49.1 °F 42.8 °F 79% 30.18 in 10.0 mi Calm Calm - N/A   Overcast
2:15 AM 49.1 °F 42.1 °F 77% 30.18 in 10.0 mi Calm Calm - N/A   Overcast
2:35 AM 47.5 °F 41.4 °F 79% 30.18 in 10.0 mi Calm Calm - N/A   Overcast
2:55 AM 47.3 °F 41.5 °F 80% 30.18 in 10.0 mi Calm Calm - N/A   Overcast
3:15 AM 45.7 °F 41.0 °F 84% 30.18 in 10.0 mi Calm Calm - N/A   Overcast
3:35 AM 45.5 °F 41.2 °F 85% 30.17 in 10.0 mi Calm Calm - N/A   Mostly Cloudy
3:55 AM 43.7 °F 40.3 °F 88% 30.17 in 10.0 mi Calm Calm - N/A   Mostly Cloudy
4:15 AM 43.2 °F 40.5 °F 90% 30.17 in 10.0 mi Calm Calm - N/A   Scattered Clouds
4:35 AM 43.2 °F 40.6 °F 91% 30.17 in 10.0 mi Calm Calm - N/A   Mostly Cloudy
4:54 AM 44.6 °F 41.5 °F 89% 30.17 in 10.0 mi Calm Calm - N/A   Overcast
5:15 AM 44.8 °F 42.1 °F 90% 30.17 in 10.0 mi Calm Calm - N/A   Overcast
5:35 AM 44.8 °F 42.1 °F 90% 30.17 in 10.0 mi Calm Calm - N/A   Mostly Cloudy
5:54 AM 43.5 °F 41.0 °F 91% 30.17 in 10.0 mi Calm Calm - N/A   Overcast
6:15 AM 43.7 °F 41.5 °F 92% 30.16 in 10.0 mi Calm Calm - N/A   Mostly Cloudy
6:35 AM 43.7 °F 41.7 °F 93% 30.16 in 10.0 mi Calm Calm - N/A   Mostly Cloudy
6:54 AM 43.7 °F 41.2 °F 91% 30.16 in 10.0 mi Calm Calm - N/A   Overcast
7:15 AM 42.8 °F 40.8 °F 93% 30.16 in 10.0 mi Calm Calm - N/A   Mostly Cloudy
7:35 AM 41.9 °F 39.9 °F 93% 30.17 in 10.0 mi Calm Calm - N/A   Scattered Clouds
7:55 AM 41.4 °F 39.6 °F 93% 30.18 in 10.0 mi Calm Calm - N/A   Clear
8:15 AM 41.4 °F 39.7 °F 94% 30.17 in 10.0 mi Calm Calm - N/A   Clear
8:35 AM 43.0 °F 41.0 °F 93% 30.18 in 10.0 mi Calm Calm - N/A   Clear
8:55 AM 44.6 °F 41.5 °F 89% 30.18 in 10.0 mi Calm Calm - N/A   Clear
9:15 AM 47.3 °F 42.4 °F 83% 30.18 in 10.0 mi Calm Calm - N/A   Clear
9:35 AM 50.2 °F 41.0 °F 71% 30.18 in 10.0 mi NNW 3.5 mph - N/A   Clear
9:55 AM 52.2 °F 40.6 °F 65% 30.19 in 10.0 mi North 6.9 mph - N/A   Clear
10:15 AM 54.1 °F 40.8 °F 61% 30.19 in 10.0 mi North 6.9 mph - N/A   Clear
10:34 AM 55.9 °F 40.1 °F 55% 30.19 in 10.0 mi NNE 8.1 mph - N/A   Clear
10:55 AM 57.4 °F 38.3 °F 49% 30.19 in 10.0 mi NNE 10.4 mph - N/A   Clear
11:15 AM 58.3 °F 37.4 °F 46% 30.19 in 10.0 mi North 8.1 mph - N/A   Clear
11:34 AM 59.7 °F 35.1 °F 40% 30.18 in 10.0 mi NNW 6.9 mph - N/A   Clear
11:55 AM 61.0 °F 35.6 °F 39% 30.18 in 10.0 mi North 8.1 mph - N/A   Clear
12:15 PM 62.6 °F 33.3 °F 33% 30.18 in 10.0 mi NNE 8.1 mph - N/A   Clear
12:34 PM 63.3 °F 34.0 °F 33% 30.17 in 10.0 mi NNE 5.8 mph - N/A   Clear
12:55 PM 64.0 °F 32.4 °F 31% 30.17 in 10.0 mi North 9.2 mph - N/A   Clear
1:15 PM 64.8 °F 33.4 °F 31% 30.17 in 10.0 mi North 5.8 mph - N/A   Clear
1:34 PM 64.2 °F 33.3 °F 32% 30.16 in 10.0 mi NNE 8.1 mph - N/A   Clear
1:55 PM 65.7 °F 33.8 °F 31% 30.15 in 10.0 mi NNW 9.2 mph - N/A   Clear
2:15 PM 66.0 °F 33.3 °F 30% 30.14 in 10.0 mi NE 4.6 mph - N/A   Clear
2:34 PM 67.1 °F 34.5 °F 30% 30.13 in 10.0 mi North 3.5 mph - N/A   Clear
2:55 PM 67.5 °F 35.1 °F 30% 30.13 in 10.0 mi West 6.9 mph 18.4 mph N/A   Clear
3:15 PM 68.2 °F 34.0 °F 28% 30.12 in 10.0 mi NNW 9.2 mph - N/A   Clear
3:34 PM 68.0 °F 34.0 °F 28% 30.12 in 10.0 mi NNW 8.1 mph - N/A   Clear
3:55 PM 67.8 °F 33.1 °F 28% 30.12 in 10.0 mi NW 6.9 mph - N/A   Clear
4:15 PM 68.4 °F 32.7 °F 27% 30.11 in 10.0 mi NNW 8.1 mph 17.3 mph N/A   Clear
4:34 PM 68.4 °F 34.0 °F 28% 30.11 in 10.0 mi West 9.2 mph - N/A   Clear
4:55 PM 68.0 °F 34.7 °F 29% 30.10 in 10.0 mi WNW 8.1 mph - N/A   Clear
5:15 PM 66.9 °F 34.9 °F 31% 30.10 in 10.0 mi NNW 6.9 mph - N/A   Clear
5:35 PM 68.0 °F 35.2 °F 30% 30.10 in 10.0 mi NNW 8.1 mph 16.1 mph N/A   Clear
5:55 PM 66.9 °F 36.5 °F 33% 30.10 in 10.0 mi NNW 8.1 mph - N/A   Clear
6:15 PM 65.7 °F 37.2 °F 35% 30.10 in 10.0 mi NW 5.8 mph - N/A   Clear
6:35 PM 64.4 °F 38.5 °F 38% 30.10 in 10.0 mi NW 3.5 mph - N/A   Clear
6:55 PM 63.9 °F 39.2 °F 40% 30.10 in 10.0 mi NNW 5.8 mph - N/A   Clear
7:15 PM 62.8 °F 39.7 °F 43% 30.10 in 10.0 mi NNW 6.9 mph - N/A   Clear
7:35 PM 60.1 °F 40.1 °F 48% 30.10 in 10.0 mi NW 4.6 mph - N/A   Clear
7:55 PM 57.7 °F 40.1 °F 52% 30.10 in 5.0 mi NW 4.6 mph - N/A   Haze
8:14 PM 54.9 °F 39.6 °F 56% 30.09 in 10.0 mi Calm Calm - N/A   Clear
8:35 PM 53.2 °F 40.6 °F 62% 30.10 in 10.0 mi West 4.6 mph - N/A   Clear
8:55 PM 51.4 °F 40.8 °F 67% 30.10 in 10.0 mi Calm Calm - N/A   Clear
9:14 PM 50.2 °F 40.5 °F 69% 30.10 in 10.0 mi West 4.6 mph - N/A   Clear
9:35 PM 49.1 °F 40.1 °F 71% 30.10 in 10.0 mi NNW 3.5 mph - N/A   Clear
9:55 PM 47.5 °F 39.4 °F 73% 30.10 in 10.0 mi Calm Calm - N/A   Clear
10:14 PM 46.9 °F 39.9 °F 77% 30.10 in 10.0 mi Calm Calm - N/A   Clear
10:35 PM 45.9 °F 39.2 °F 78% 30.10 in 10.0 mi Calm Calm - N/A   Clear
10:55 PM 44.2 °F 37.9 °F 79% 30.10 in 10.0 mi Calm Calm - N/A   Clear
11:15 PM 43.5 °F 38.5 °F 82% 30.10 in 10.0 mi Calm Calm - N/A   Clear
11:35 PM 43.0 °F 39.2 °F 86% 30.10 in 10.0 mi Calm Calm - N/A   Clear
11:55 PM 43.2 °F 40.1 °F 89% 30.11 in 10.0 mi Calm Calm - N/A   Clear